Location: Aufkirchen
(47.9603°N, 11.3653°E)
Time: 10:23:04
(UTC+01:00)

Tiros 1 - Pass Details

Date: 30 November 2020
Orbit: 630 x 663 km, 48.4° (Epoch: 21 January)

Event Time Altitude Azimuth Distance (km) Brightness Sun altitude
Rises 18:18:53 0° 276° (W) 2,991 11.9 -18.5°
Reaches altitude 10° 18:21:15 10° 277° (W) 2,075 10.8 -18.9°
Maximum altitude 18:26:03 88° 3° (N) 662 7.1 -19.7°
Enters shadow 18:27:31 45° 95° (E) 890 7.4 -19.9°
Drops below altitude 10° 18:30:49 10° 97° (E) 2,056 - -20.5°
Sets 18:33:09 0° 98° (E) 2,960 - -20.9°
